Home > Weather > Binningen > Past weeks

Flag for Switzerland Past Weather in Binningen, Basel-Land, Switzerland — Yesterday and Last 2 Weeks

Now
63 °F

Overcast.


Feels Like: 63 °F
Forecast: 59 / 69 °F
Wind: 7 mph from Southeast

Location: Bale-Mulhouse

Current Time: May 28, 2016 at 7:56:11 AM

Latest Report: May 28, 2016 at 7:00 AM


Visibility: 13 mi

Pressure: 29.92 "Hg

Humidity: 87%

Dew Point: 59 °F

Location of BinningenLocation

Past Weather in Binningen — Graph

°F

Binningen Temperature Yesterday

Maximum temperature yesterday: 80 °F (at 5:00 PM)
Minimum temperature yesterday: 55 °F (at 6:00 AM)
Average temperature yesterday: 68 °F

High & Low Weather Summary for the Past Weeks

 TemperatureHumidityPressure
High80 °F (May 27, 5:00 PM)98% (May 26, 6:00 AM)30.25 "Hg (May 26, 6:00 AM)
Low40 °F (May 16, 2:00 AM)38% (May 18, 3:00 PM)29.50 "Hg (May 13, 6:00 AM)
Average57 °F75%29.98 "Hg
* Reported May 13 6:00 AM — May 28 6:00 AM, Binningen, Weather by CustomWeather, © 2016

Note: Actual official high and low records may vary slightly from our data, if they occured in-between our weather recording intervals... More about our weather records

Advertising

Binningen Weather History for the Previous 24 Hours

Scroll right to see more
 ConditionsComfort  
Time TempWeatherWind HumidityBarometerVisibility
6:00 AM
Sat, May 28
62 °FOvercast.9 mph90%29.93 "Hg12 mi
5:00 AM62 °FOvercast.3 mph94%29.95 "Hg12 mi
4:00 AM63 °FOvercast.2 mph92%29.96 "Hg9 mi
3:00 AM64 °FLight rain. Overcast.5 mph87%29.96 "Hg15 mi
2:00 AM65 °FOvercast.7 mph77%29.92 "Hg25 mi
1:00 AM64 °FOvercast.6 mph81%29.93 "Hg17 mi
12:00 AM65 °FOvercast.6 mph76%29.92 "Hg31 mi
11:00 PM
Fri, May 27
65 °FPassing clouds.6 mph73%29.92 "Hg16 mi
10:00 PM68 °FPassing clouds.6 mph66%29.92 "Hg16 mi
9:00 PM71 °FPartly sunny.8 mph65%29.89 "Hg16 mi
8:00 PM76 °FPartly sunny.3 mph54%29.87 "Hg16 mi
7:00 PM79 °FOvercast.6 mph47%29.87 "Hg16 mi
6:00 PM80 °FOvercast.5 mph46%29.87 "Hg16 mi
5:00 PM80 °FOvercast.7 mph46%29.88 "Hg16 mi
4:00 PM79 °FOvercast.3 mph51%29.89 "Hg16 mi
3:00 PM79 °FOvercast.7 mph46%29.90 "Hg16 mi
2:00 PM77 °FOvercast.5 mph46%29.90 "Hg16 mi
1:00 PM76 °FOvercast.5 mph49%29.92 "Hg16 mi
12:00 PM75 °FOvercast.2 mph51%29.93 "Hg16 mi
11:00 AM72 °FOvercast.2 mph61%29.95 "Hg16 mi
10:00 AM68 °FOvercast.1 mph69%29.96 "Hg16 mi
9:00 AM64 °FOvercast.2 mph78%29.98 "Hg16 mi
8:00 AM60 °FOvercast.No wind86%29.98 "Hg16 mi
7:00 AM56 °FOvercast.1 mph96%29.97 "Hg10 mi
Weather by CustomWeather, © 2016

See weather overviewHow to use our weather pages